Flag for Switzerland Weather past 2 weeks in Meilen, Zurich, Switzerland

Now
59 °F

Cool.


Feels Like: 60 °F
Forecast: 47 / 70 °F
Wind: 3 mph from West

Location: Zurich Town / Ville.

Current Time: Jul 29, 2015 at 12:09:21 PM

Latest Report: Jul 29, 2015 at 11:00 AM


Visibility: N/A

Pressure: 29.85 "Hg

Humidity: 90%

Dew point: 56 °F

Location of MeilenLocation

Historic Weather in Meilen — Graph

°F

Meilen temperature yesterday

Maximum temperature yesterday: 69 °F (at 6:00 PM)
Minimum temperature yesterday: 61 °F (at 6:00 AM)
Average temperature yesterday: 65 °F

Past Weeks' High & Low Weather Summary

 TemperatureHumidityPressure
High92 °F (Jul 21, 5:00 PM)98% (Jul 27, 2:00 AM)30.17 "Hg (Jul 27, 2:00 AM)
Low55 °F (Jul 26, 6:00 AM)24% (Jul 16, 4:00 PM)29.66 "Hg (Jul 24, 5:00 PM)
Average72 °F62%29.94 "Hg
* Reported Jul 14 10:00 AM — Jul 29 10:00 AM, Meilen, Weather by CustomWeather, © 2015

Note: Actual official high and low records may vary slightly from our data, if they occured in-between our weather recording intervals... More about our weather records

Advertising

Meilen weather history for previous 24 hours

 ConditionsComfort  
Time TempWeatherWind HumidityBarometerVisibility
10:00 AM
Wed, Jul 29
60 °FCool.2 mph81%29.85 "HgN/A
9:00 AM59 °FCool.2 mph81%29.85 "HgN/A
8:00 AM58 °FCool.2 mph83%29.87 "HgN/A
7:00 AM57 °FCool.2 mph83%29.89 "HgN/A
6:00 AM56 °FCool.3 mph78%29.91 "HgN/A
5:00 AM55 °FCool.2 mph85%29.93 "HgN/A
4:00 AM55 °FCool.1 mph82%29.93 "HgN/A
3:00 AM57 °FCool.3 mph70%29.94 "HgN/A
2:00 AM57 °FCool.3 mph77%29.93 "HgN/A
1:00 AM56 °FCool.1 mph80%29.94 "HgN/A
12:00 AM57 °FCool.6 mph81%29.95 "HgN/A
10:00 PM
Tue, Jul 28
63 °FMild.5 mph53%29.89 "HgN/A
9:00 PM65 °FMild.6 mph46%29.85 "HgN/A
8:00 PM67 °FMild.5 mph46%29.83 "HgN/A
7:00 PM69 °FMild.6 mph48%29.80 "HgN/A
6:00 PM69 °FMild.7 mph48%29.80 "HgN/A
5:00 PM69 °FMild.7 mph47%29.81 "HgN/A
4:00 PM68 °FMild.6 mph49%29.83 "HgN/A
3:00 PM66 °FMild.7 mph51%29.84 "HgN/A
2:00 PM65 °FOvercast.7 mph54%29.86 "HgN/A
1:00 PM64 °FMild.9 mph55%29.87 "HgN/A
12:00 PM64 °FMild.6 mph59%29.88 "HgN/A
Weather by CustomWeather, © 2015

See weather overviewHow to use our weather pages